This is the latest recevied weather packets stored in our database for station/object OK2ARM-6. If no packets are shown the sender has not sent any weather packets the latest 10 day(s).
| Time | Temp. | Humidity | Pressure | Rain* | Wind** | Luminosity | Snow |
|---|---|---|---|---|---|---|---|
| 1777853602 | 12.78° C | 100% | 1015 hPa | - | - | - | - |
| 1777853002 | 12.78° C | 100% | 1015.1 hPa | - | - | - | - |
| 1777852402 | 12.78° C | 100% | 1015.1 hPa | - | - | - | - |
| 1777850602 | 13.33° C | 100% | 1015.3 hPa | - | - | - | - |
| 1777845202 | 14.44° C | 100% | 1015.8 hPa | - | - | - | - |
| 1777842202 | 14.44° C | 100% | 1015.9 hPa | - | - | - | - |
| 1777838315 | 16.11° C | 100% | 1016 hPa | - | - | - | - |
| 1777834571 | 17.22° C | 100% | 1015.9 hPa | - | - | - | - |
| 1777827541 | 21.67° C | 100% | 1015.7 hPa | - | - | - | - |
| 1777826340 | 22.78° C | 100% | 1015.7 hPa | - | - | - | - |
| 1777824997 | 23.89° C | 100% | 1015.8 hPa | - | - | - | - |
| 1777824397 | 23.33° C | 100% | 1015.7 hPa | - | - | - | - |
| 1777816766 | 25.56° C | 100% | 1016.7 hPa | - | - | - | - |
| 1777808822 | 23.33° C | 100% | 1018.1 hPa | - | - | - | - |
| 1777804478 | 21.67° C | 100% | 1018.9 hPa | - | - | - | - |
| 1777802678 | 21.67° C | 100% | 1019 hPa | - | - | - | - |
| 1777801478 | 20.56° C | 100% | 1019.3 hPa | - | - | - | - |
| 1777792790 | 15° C | 100% | 1019.9 hPa | - | - | - | - |
| 1777792190 | 14.44° C | 100% | 1019.8 hPa | - | - | - | - |
| 1777789790 | 13.33° C | 100% | 1019.7 hPa | - | - | - | - |
| 1777772271 | 3.33° C | 100% | 1019.3 hPa | - | - | - | - |
| 1777770927 | 3.89° C | 100% | 1019.3 hPa | - | - | - | - |
| 1777764640 | 5.56° C | 100% | 1019.9 hPa | - | - | - | - |
| 1777764040 | 6.11° C | 100% | 1019.9 hPa | - | - | - | - |
| 1777763440 | 6.11° C | 100% | 1020 hPa | - | - | - | - |
* Rain since midnight (hover to see other rain measurements)
** Current wind speed in m/s (hover to see current wind gust speed)